Hourly Data Report for May 03, 2021

VINELAND STATION RCS
ONTARIO
Current Station Operator: ECCC - MSC

43°11'00.000" N
79°24'00.000" W
79.20 m
6139148
71171
XVN

Download Data

Hourly Data (May 2021)
Hourly Data Report for May 3, 2021
TIME
LST
Temp Definition
°C
Dew Point Definition
°C
Rel Hum Definition
%
Precip. Amount Definition
mm

Wind Dir Definition
10's deg

Wind Spd Definition
km/h
Visibility Definition
km
Stn Press Definition
kPa
Hmdx Definition


Wind Chill Definition


Weather Definition


00:00 8.1 6.4 89 0.0 1 10   99.86     LegendNANA
01:00 8.0 6.3 89 0.0 8 5   99.82     LegendNANA
02:00 7.8 6.3 90 0.0 31 9   99.81     LegendNANA
03:00 7.7 6.6 92 0.0 8 7   99.78     LegendNANA
04:00 6.9 5.9 93 0.0 36 8   99.79     LegendNANA
05:00 7.4 6.5 94 0.0 19 2   99.74     LegendNANA
06:00 7.1 6.2 94 0.0 27 12   99.81     LegendNANA
07:00 7.7 6.6 93 0.0 27 13   99.83     LegendNANA
08:00 8.0 6.4 90 0.0 29 15   99.83     LegendNANA
09:00 8.9 7.0 88 0.0 28 12   99.82     LegendNANA
10:00 8.4 6.4 88 0.0 29 12   99.81     LegendNANA
11:00 8.5 7.0 90 0.0 30 9   99.82     LegendNANA
12:00 8.6 7.7 94 0.2 32 7   99.81     LegendNANA
13:00 8.5 7.2 91 0.0 33 4   99.73     LegendNANA
14:00 8.6 7.2 91 0.3 4 5   99.66     LegendNANA
15:00 8.5 7.7 94 0.3 34 5   99.60     LegendNANA
16:00 9.1 8.1 94 0.3 31 5   99.56     LegendNANA
17:00 9.5 8.0 90 0.3 6 7   99.50     LegendNANA
18:00 9.1 7.5 90 0.0 5 13   99.48     LegendNANA
19:00 9.1 7.4 89 0.0 7 16   99.48     LegendNANA
20:00 8.8 7.1 89 0.1 6 17   99.51     LegendNANA
21:00 8.4 6.9 91 0.4 7 16   99.54     LegendNANA
22:00 8.3 6.4 88 0.1 8 13   99.56     LegendNANA
23:00 7.6 6.3 92 0.4 5 10   99.55     LegendNANA

Notes on Data Quality.

Legend

  • E = Estimated
  • M = Missing
  • NA = Not Available*
  • [empty] = Indicates an unobserved value
Date modified: